Location: London
(42.9830°N, 81.2500°W)
Time: 03:24:41
(UTC-04:00)

Amateur Radio Satellites - All Passes

Search period start: 02 July 2016 02:54
Search period end: 03 July 2016 02:54
Location: London, 42.9830°N, 81.2500°W

Satellite Date Start Highest point End Downlink Frequencies (MHz)
Time Altitude Azimuth
BEESAT 3 02 Jul 03:04:11 03:07:59 49° 308° (NW) 03:11:50 437.485
Cosmos 2504 02 Jul 03:22:44 03:29:43 27° 280° (W) 03:36:28 435.465 / 435.565
PCSat 02 Jul 03:23:12 03:28:07 34° 310° (NW) 03:33:04 145.827
Oscar 19 02 Jul 03:28:53 03:33:53 55° 289° (WNW) 03:38:53 437.125/150
O/OREOS (USA 219) 02 Jul 03:32:54 03:37:11 42° 299° (WNW) 03:41:27 437.305
AO-7 02 Jul 03:33:37 03:38:11 15° 88° (E) 03:42:43 29.400- 29.500
BEESAT 2 02 Jul 03:50:05 03:53:39 31° 312° (NW) 03:57:15 435.950
SWISSCUBE 02 Jul 03:56:43 04:00:24 22° 267° (W) 04:04:07 437.505
ITAMSAT 1 02 Jul 03:59:44 04:04:46 45° 99° (E) 04:09:44 435.822/435.867
Cosmos 2491 02 Jul 04:01:16 04:04:40 12° 306° (NW) 04:08:04 435.465 / 435.565
Cosmos 2499 02 Jul 04:04:39 04:05:54 10° 50° (NE) 04:07:09 435.465 / 435.565
KKS-1 02 Jul 04:06:44 04:11:04 59° 73° (ENE) 04:15:26 437.445
Gurwin Techsat 1B 02 Jul 04:16:37 04:21:43 48° 290° (WNW) 04:26:48 435.225
AIST 1 02 Jul 04:22:09 04:26:24 63° 80° (E) 04:30:37
BEESAT 02 Jul 04:23:04 04:25:28 14° 270° (W) 04:27:54 436.000
MOZHAYETS 4 02 Jul 04:24:48 04:29:25 82° 76° (ENE) 04:34:06
ITUPSAT 1 02 Jul 04:26:59 04:29:10 13° 270° (W) 04:31:22 437.325
STARS 02 Jul 04:28:24 04:32:36 51° 72° (ENE) 04:36:51 437.465
CUBESAT XI-V 02 Jul 04:29:02 04:30:59 12° 60° (ENE) 04:32:55 437.345
GONETS M04 02 Jul 04:47:22 04:54:51 30° 67° (ENE) 05:02:19
AIST 2 02 Jul 05:03:50 05:07:58 89° 331° (NNW) 05:12:07 435.215
HORYU 2 02 Jul 05:22:58 05:26:04 18° 93° (E) 05:29:07 437.375
AO-7 02 Jul 05:23:47 05:32:13 78° 107° (ESE) 05:40:35 29.400- 29.500
AO-85 02 Jul 05:34:11 05:38:33 41° 49° (NE) 05:42:33 145.980
ITAMSAT 1 02 Jul 05:39:47 05:43:57 25° 297° (WNW) 05:48:06 435.822/435.867
KKS-1 02 Jul 05:45:52 05:48:02 13° 269° (W) 05:50:12 437.445
Cosmos 2499 02 Jul 05:53:08 06:01:37 51° 74° (ENE) 06:09:31 435.465 / 435.565
AIST 1 02 Jul 06:02:20 06:03:23 11° 277° (W) 06:04:27
CUBESAT XI-V 02 Jul 06:03:00 06:07:42 81° 258° (WSW) 06:12:25 437.345
MOZHAYETS 4 02 Jul 06:06:25 06:07:10 10° 272° (W) 06:07:56
STARS 02 Jul 06:06:42 06:09:15 15° 268° (W) 06:11:51 437.465
CUSAT 1 02 Jul 06:26:19 06:31:10 19° 88° (E) 06:35:30 437.405
PHONESAT 2.4 02 Jul 06:35:39 06:38:26 32° 164° (SSE) 06:41:13 2401.200-2431.200
Cubesat XI-IV 02 Jul 06:36:40 06:40:03 17° 90° (E) 06:43:25 437.490
GONETS M04 02 Jul 06:43:40 06:52:14 63° 268° (W) 07:00:50
AIST 2 02 Jul 06:44:55 06:47:04 14° 323° (NW) 06:49:13 435.215
HORYU 2 02 Jul 06:58:32 07:02:50 46° 289° (WNW) 07:07:07 437.375
NOAA 18 02 Jul 07:02:22 07:07:16 31° 96° (E) 07:12:07 137.9125
CUTE-I 02 Jul 07:08:41 07:13:30 33° 96° (E) 07:18:17 437.470
AO-85 02 Jul 07:15:18 07:18:41 22° 249° (WSW) 07:21:52 145.980
BRITE-PL 02 Jul 07:17:15 07:21:19 52° 100° (E) 07:25:29 437.365/2234.400
AO-7 02 Jul 07:17:34 07:24:11 27° 307° (NW) 07:30:47 29.400- 29.500
STRAND 1 02 Jul 07:22:03 07:27:00 50° 71° (ENE) 07:31:59 437.568
DANDE 02 Jul 07:23:23 07:30:22 31° 88° (E) 07:36:42 436.750
NOAA 15 02 Jul 07:23:31 07:28:43 60° 102° (ESE) 07:33:52 137.62
GOMX 1 02 Jul 07:30:22 07:34:14 33° 97° (E) 07:38:15 467.674
LilacSat-2 02 Jul 07:40:14 07:44:08 69° 101° (ESE) 07:48:00 437.200
Cosmos 2499 02 Jul 07:46:44 07:54:25 37° 276° (W) 08:01:42 435.465 / 435.565
CUSAT 1 02 Jul 08:05:20 08:12:52 78° 280° (W) 08:18:59 437.405
DOVE 4 02 Jul 08:10:04 08:14:15 41° 99° (E) 08:18:39 437.250
PHONESAT 2.4 02 Jul 08:11:47 08:14:48 53° 180° (S) 08:17:48 2401.200-2431.200
Cubesat XI-IV 02 Jul 08:15:15 08:20:36 66° 288° (WNW) 08:25:55 437.490
ISS 02 Jul 08:15:50 08:19:04 63° 143° (SE) 08:22:18 145.825
HO-68 02 Jul 08:18:56 08:24:13 21° 91° (E) 08:29:28 435.675
CANX-2 02 Jul 08:22:49 08:25:23 16° 91° (E) 08:27:58 2200.000
CINEMA 3 02 Jul 08:36:27 08:40:17 25° 95° (E) 08:44:13 145.822/145.860
SEEDS 02 Jul 08:38:43 08:41:01 14° 90° (E) 08:43:19 437.485
CUTE 1.7 + AOD 2 02 Jul 08:41:25 08:44:44 22° 93° (E) 08:48:01 437.475
NOAA 18 02 Jul 08:42:51 08:47:58 39° 293° (WNW) 08:53:03 137.9125
GONETS M04 02 Jul 08:45:15 08:47:08 11° 289° (WNW) 08:49:03
CUTE-I 02 Jul 08:48:42 08:53:31 34° 293° (WNW) 08:58:19 437.470
PRISM 02 Jul 08:53:59 08:58:05 63° 73° (ENE) 09:02:11 437.425
BRITE-PL 02 Jul 08:57:15 08:59:26 14° 296° (WNW) 09:01:38 437.365/2234.400
STRAND 1 02 Jul 09:02:39 09:06:27 21° 268° (W) 09:10:17 437.568
NOAA 15 02 Jul 09:04:22 09:08:01 19° 299° (WNW) 09:11:40 137.62
DANDE 02 Jul 09:04:37 09:12:54 62° 283° (WNW) 09:20:10 436.750
AAUSAT CUBESAT 2 02 Jul 09:05:52 09:08:26 16° 91° (E) 09:10:58 437.432
GOMX 1 02 Jul 09:08:51 09:12:12 23° 292° (WNW) 09:15:39 467.674
LilacSat-2 02 Jul 09:17:15 09:17:52 10° 298° (WNW) 09:18:29 437.200
UNISAT 6 02 Jul 09:25:14 09:25:52 10° 59° (ENE) 09:26:30 437.425
CUBEBUG 2 02 Jul 09:42:29 09:46:49 37° 97° (E) 09:51:12 437.445
COMPASS 1 02 Jul 09:42:55 09:47:01 51° 99° (E) 09:51:05 437.405
BEESAT 3 02 Jul 09:43:46 09:46:18 16° 41° (NE) 09:48:51 437.485
PHONESAT 2.4 02 Jul 09:48:23 09:51:09 31° 197° (SSW) 09:53:56 2401.200-2431.200
DOVE 4 02 Jul 09:48:29 09:51:44 21° 293° (WNW) 09:55:06 437.250
ZACube-1 02 Jul 09:51:17 09:54:47 21° 93° (E) 09:58:17 437.345
CUSAT 1 02 Jul 09:51:55 09:55:29 14° 295° (WNW) 09:58:44 437.405
ISS 02 Jul 09:52:53 09:55:43 26° 342° (NNW) 09:58:33 145.825
AUBIESAT-1 02 Jul 09:52:53 09:55:30 16° 99° (E) 09:58:12 437.475
Oscar 11 02 Jul 09:53:10 09:56:34 22° 93° (E) 09:59:56 145.826/435.025
CANX-2 02 Jul 09:57:23 10:01:32 47° 287° (WNW) 10:05:37 2200.000
ANTELSAT 02 Jul 10:01:35 10:05:05 24° 66° (ENE) 10:08:40 437.575/2403.000
HO-68 02 Jul 10:05:23 10:12:35 74° 290° (WNW) 10:19:45 435.675
FUNcube-1 02 Jul 10:06:12 10:10:09 28° 95° (E) 10:14:06 145.935
Cosmos 2491 02 Jul 10:11:23 10:16:11 15° 57° (ENE) 10:20:58 435.465 / 435.565
SEEDS 02 Jul 10:12:55 10:17:02 50° 287° (WNW) 10:21:06 437.485
CINEMA 3 02 Jul 10:13:14 10:17:27 36° 290° (WNW) 10:21:49 145.822/145.860
CUTE 1.7 + AOD 2 02 Jul 10:16:46 10:20:39 34° 290° (WNW) 10:24:29 437.475
DELFI C3 02 Jul 10:18:01 10:20:40 17° 92° (E) 10:23:19 145.870
UWE-3 02 Jul 10:20:56 10:25:33 64° 101° (E) 10:30:12 435.000/436.395/437.385
PCSat 02 Jul 10:26:20 10:31:26 39° 51° (NE) 10:36:30 145.827
BEESAT 2 02 Jul 10:29:26 10:32:44 24° 45° (NE) 10:35:59 435.950
HUMSAT D 02 Jul 10:29:45 10:31:18 12° 89° (E) 10:32:50 437.325/437.525
PRISM 02 Jul 10:32:31 10:33:47 11° 270° (W) 10:35:03 437.425
M-CUBED/EXP-1 PRIME 02 Jul 10:34:45 10:38:43 56° 107° (ESE) 10:42:57 437.505
AAUSAT CUBESAT 2 02 Jul 10:40:11 10:44:09 44° 288° (WNW) 10:48:05 437.432
QB50P2 02 Jul 10:41:57 10:43:28 12° 61° (ENE) 10:45:00 145.880/145.840
POLYITAN 1 02 Jul 10:44:29 10:46:06 12° 61° (ENE) 10:47:42 437.675
TIGRISAT 02 Jul 10:50:56 10:55:14 74° 75° (ENE) 10:59:42 435.000
DANDE 02 Jul 10:53:15 10:56:52 13° 300° (WNW) 11:00:17 436.750
UNISAT 6 02 Jul 10:57:29 11:01:50 88° 256° (WSW) 11:06:19 437.425
JAS-2 02 Jul 11:13:40 11:17:06 14° 55° (NE) 11:20:22 435.910
CUBEBUG 2 02 Jul 11:19:29 11:23:15 25° 293° (WNW) 11:27:03 437.445
COMPASS 1 02 Jul 11:19:45 11:22:10 15° 296° (WNW) 11:24:33 437.405
BEESAT 3 02 Jul 11:20:28 11:24:23 64° 240° (WSW) 11:28:17 437.485
AUBIESAT-1 02 Jul 11:26:14 11:30:07 47° 292° (WNW) 11:34:15 437.475
ZACube-1 02 Jul 11:26:55 11:31:12 40° 289° (WNW) 11:35:29 437.345
Oscar 11 02 Jul 11:28:49 11:32:47 35° 290° (WNW) 11:36:43 145.826/435.025
ISS 02 Jul 11:30:37 11:32:57 18° 2° (N) 11:35:15 145.825
RS-15 02 Jul 11:31:48 11:42:40 55° 112° (ESE) 11:54:08 29.354- 29.394
ANTELSAT 02 Jul 11:37:43 11:41:39 33° 264° (W) 11:45:41 437.575/2403.000
FUNcube-1 02 Jul 11:42:22 11:46:21 30° 291° (WNW) 11:50:19 145.935
AIST 2 02 Jul 11:47:30 11:49:19 12° 36° (NE) 11:51:07 435.215
DELFI C3 02 Jul 11:51:59 11:55:41 37° 289° (WNW) 11:59:20 145.870
NANOSAT C BR1 02 Jul 11:52:00 11:56:06 58° 74° (ENE) 12:00:14 145.865
YUBILEINY 02 Jul 11:52:46 11:59:23 25° 80° (E) 12:06:00 435.215
HO-68 02 Jul 11:55:03 11:59:08 16° 309° (NW) 12:03:11 435.675
QB50P1 02 Jul 11:57:26 12:01:36 70° 74° (ENE) 12:05:48 145.935-145.965
UWE-3 02 Jul 11:58:52 12:01:31 15° 297° (WNW) 12:04:09 435.000/436.395/437.385
POPSAT HIP 1 02 Jul 12:01:03 12:05:14 76° 74° (ENE) 12:09:26 437.405
O/OREOS (USA 219) 02 Jul 12:02:30 12:06:49 44° 62° (ENE) 12:11:07 437.305
HUMSAT D 02 Jul 12:03:03 12:07:21 65° 286° (WNW) 12:11:36 437.325/437.525
Cosmos 2491 02 Jul 12:06:03 12:14:48 72° 80° (E) 12:23:29 435.465 / 435.565
BEESAT 2 02 Jul 12:06:58 12:10:40 37° 243° (WSW) 12:14:20 435.950
VELOX 1 02 Jul 12:08:32 12:11:03 15° 91° (E) 12:13:33 145.980
PCSat 02 Jul 12:09:56 12:14:44 33° 250° (WSW) 12:19:30 145.827
DUCHIFAT 1 02 Jul 12:10:24 12:14:34 87° 84° (E) 12:18:47 145.980
M-CUBED/EXP-1 PRIME 02 Jul 12:10:36 12:12:55 15° 300° (WNW) 12:15:20 437.505
QB50P2 02 Jul 12:14:31 12:18:42 71° 259° (W) 12:22:55 145.880/145.840
POLYITAN 1 02 Jul 12:17:09 12:21:20 69° 259° (W) 12:25:33 437.675
UKube-1 02 Jul 12:26:53 12:29:10 14° 91° (E) 12:31:27 .
TIGRISAT 02 Jul 12:31:52 12:32:30 10° 272° (W) 12:33:08 435.000
AISAT 02 Jul 12:48:36 12:52:47 41° 99° (E) 12:56:57 437.250
BUGSAT 1 02 Jul 12:48:43 12:52:43 76° 257° (WSW) 12:56:45 437.445
DX 1 02 Jul 12:53:34 12:57:32 34° 98° (E) 13:01:28 434.975-435.025
JAS-2 02 Jul 12:53:44 13:01:09 70° 73° (ENE) 13:07:51 435.910
50 SAT 02 Jul 12:58:52 13:02:31 58° 101° (E) 13:06:07 437.505
ESTCUBE 1 02 Jul 13:01:59 13:06:31 89° 274° (W) 13:11:00 437.505/2401.250
ISS 02 Jul 13:07:06 13:10:06 32° 22° (NNE) 13:13:04 145.825
Oscar 19 02 Jul 13:08:07 13:12:34 30° 66° (ENE) 13:17:01 437.125/150
CUBEBUG 1 02 Jul 13:23:57 13:28:17 76° 284° (WNW) 13:32:36 437.445
AIST 2 02 Jul 13:24:20 13:28:30 77° 55° (NE) 13:32:40 435.215
TISAT 1 02 Jul 13:25:40 13:26:44 11° 89° (E) 13:27:48 437.305
NANOSAT C BR1 02 Jul 13:30:26 13:32:13 12° 270° (W) 13:34:00 145.865
QB50P1 02 Jul 13:37:27 13:37:51 10° 271° (W) 13:38:15 145.935-145.965
O/OREOS (USA 219) 02 Jul 13:42:46 13:45:52 19° 259° (W) 13:48:58 437.305
VELOX 1 02 Jul 13:43:32 13:47:49 53° 288° (WNW) 13:52:05 145.980
ITAMSAT 1 02 Jul 13:43:33 13:45:04 11° 56° (NE) 13:46:36 435.822/435.867
RS-15 02 Jul 13:44:03 13:55:16 53° 317° (NW) 14:07:07 29.354- 29.394
YUBILEINY 02 Jul 13:46:34 13:55:16 72° 280° (W) 14:04:05 435.215
SPROUT 02 Jul 13:54:19 13:58:38 86° 286° (WNW) 14:02:56 437.525
Gurwin Techsat 1B 02 Jul 13:59:04 14:04:00 40° 68° (ENE) 14:08:56 435.225
UKube-1 02 Jul 14:01:20 14:05:33 54° 288° (WNW) 14:09:45 .
Cosmos 2491 02 Jul 14:04:11 14:10:45 25° 280° (W) 14:17:19 435.465 / 435.565
Cosmos 2504 02 Jul 14:06:36 14:14:34 56° 90° (E) 14:23:03 435.465 / 435.565
SO-50 02 Jul 14:19:46 14:22:01 13° 108° (ESE) 14:24:15 436.795
AISAT 02 Jul 14:25:48 14:28:59 20° 295° (WNW) 14:32:10 437.250
DX 1 02 Jul 14:30:07 14:33:32 23° 294° (WNW) 14:36:57 434.975-435.025
AO-7 02 Jul 14:33:08 14:39:49 28° 53° (NE) 14:46:31 29.400- 29.500
50 SAT 02 Jul 14:34:50 14:35:41 11° 298° (WNW) 14:36:33 437.505
JAS-2 02 Jul 14:40:48 14:46:32 24° 268° (W) 14:51:54 435.910
ESTCUBE 1 02 Jul 14:41:56 14:42:35 10° 301° (WNW) 14:43:14 437.505/2401.250
BEESAT 02 Jul 14:43:00 14:45:54 16° 91° (E) 14:48:46 436.000
ISS 02 Jul 14:43:29 14:46:37 43° 220° (SW) 14:49:43 145.825
ITUPSAT 1 02 Jul 14:46:49 14:49:56 17° 92° (E) 14:53:01 437.325
Oscar 19 02 Jul 14:47:08 14:51:47 34° 263° (W) 14:56:28 437.125/150
TISAT 1 02 Jul 14:58:38 15:02:50 67° 285° (WNW) 15:07:01 437.305
AIST 2 02 Jul 15:05:26 15:06:22 11° 252° (WSW) 15:07:17 435.215
ITAMSAT 1 02 Jul 15:18:26 15:23:38 76° 73° (ENE) 15:28:53 435.822/435.867
Gurwin Techsat 1B 02 Jul 15:39:33 15:44:02 27° 265° (W) 15:48:33 435.225
YUBILEINY 02 Jul 15:49:03 15:53:53 16° 303° (WNW) 15:58:45 435.215
SWISSCUBE 02 Jul 15:54:29 15:59:19 89° 114° (ESE) 16:04:05 437.505
SO-50 02 Jul 15:56:57 16:01:51 82° 305° (NW) 16:06:45 436.795
KKS-1 02 Jul 15:59:36 16:00:23 10° 89° (E) 16:01:09 437.445
Cosmos 2504 02 Jul 16:00:56 16:08:21 35° 291° (WNW) 16:16:12 435.465 / 435.565
RS-15 02 Jul 16:01:51 16:11:30 27° 349° (N) 16:21:27 29.354- 29.394
BEESAT 02 Jul 16:19:20 16:24:03 58° 288° (WNW) 16:28:44 436.000
MOZHAYETS 4 02 Jul 16:19:56 16:23:07 18° 92° (E) 16:26:17
HORYU 2 02 Jul 16:22:02 16:25:12 20° 64° (ENE) 16:28:23 437.375
ITUPSAT 1 02 Jul 16:23:24 16:28:05 54° 289° (WNW) 16:32:45 437.325
AO-7 02 Jul 16:23:29 16:31:49 76° 253° (WSW) 16:40:14 29.400- 29.500
AIST 1 02 Jul 16:52:25 16:56:20 35° 91° (E) 17:00:14
ITAMSAT 1 02 Jul 17:01:07 17:03:40 14° 271° (W) 17:06:16 435.822/435.867
NOAA 15 02 Jul 17:07:39 17:10:38 15° 59° (ENE) 17:13:37 137.62
KKS-1 02 Jul 17:33:00 17:37:28 77° 285° (WNW) 17:41:55 437.445
SWISSCUBE 02 Jul 17:34:39 17:36:22 12° 302° (WNW) 17:38:04 437.505
SO-50 02 Jul 17:40:01 17:43:05 16° 324° (NW) 17:46:09 436.795
GONETS M04 02 Jul 17:50:16 17:57:40 33° 84° (E) 18:05:04
STARS 02 Jul 17:52:48 17:57:14 89° 102° (ESE) 18:01:40 437.465
MOZHAYETS 4 02 Jul 17:56:04 18:00:32 47° 288° (WNW) 18:04:57
HORYU 2 02 Jul 17:57:13 18:01:27 44° 261° (W) 18:05:44 437.375
Cubesat XI-IV 02 Jul 17:59:04 18:03:42 31° 66° (ENE) 18:08:22 437.490
CUBESAT XI-V 02 Jul 17:59:17 18:02:58 23° 94° (E) 18:06:38 437.345
DANDE 02 Jul 18:05:50 18:07:00 11° 57° (ENE) 18:08:06 436.750
RS-15 02 Jul 18:18:35 18:29:12 32° 24° (NNE) 18:39:52 29.354- 29.394
AO-7 02 Jul 18:21:40 18:25:54 15° 273° (W) 18:30:10 29.400- 29.500
LilacSat-2 02 Jul 18:23:04 18:26:34 37° 72° (ENE) 18:30:07 437.200
BRITE-PL 02 Jul 18:28:33 18:33:25 71° 75° (ENE) 18:37:55 437.365/2234.400
NOAA 18 02 Jul 18:29:25 18:34:48 63° 71° (ENE) 18:40:16 137.9125
Cosmos 2499 02 Jul 18:29:56 18:37:36 40° 85° (E) 18:45:37 435.465 / 435.565
AIST 1 02 Jul 18:30:50 18:34:02 20° 289° (WNW) 18:37:13
CUTE-I 02 Jul 18:31:12 18:36:26 58° 71° (ENE) 18:41:43 437.470
GOMX 1 02 Jul 18:39:33 18:43:42 39° 72° (ENE) 18:47:40 467.674
CUSAT 1 02 Jul 18:41:26 18:44:45 68° 79° (E) 18:47:29 437.405
NOAA 15 02 Jul 18:44:27 18:49:44 79° 256° (WSW) 18:55:03 137.62
HO-68 02 Jul 18:49:48 18:54:37 20° 53° (NE) 18:59:25 435.675
DOVE 4 02 Jul 19:16:50 19:20:50 43° 72° (ENE) 19:24:46 437.250
CANX-2 02 Jul 19:17:10 19:19:20 14° 63° (ENE) 19:21:31 2200.000
STARS 02 Jul 19:32:09 19:32:53 10° 301° (WNW) 19:33:38 437.465
SEEDS 02 Jul 19:32:12 19:33:59 12° 62° (ENE) 19:35:46 437.485
STRAND 1 02 Jul 19:32:56 19:36:00 16° 90° (E) 19:39:02 437.568
CUTE 1.7 + AOD 2 02 Jul 19:35:20 19:38:18 18° 65° (ENE) 19:41:16 437.475
CUBESAT XI-V 02 Jul 19:36:13 19:40:26 36° 291° (WNW) 19:44:38 437.345
Cubesat XI-IV 02 Jul 19:38:44 19:43:39 37° 263° (W) 19:48:38 437.490
CINEMA 3 02 Jul 19:39:44 19:42:56 22° 67° (ENE) 19:46:12 145.822/145.860
GONETS M04 02 Jul 19:45:32 19:54:01 56° 284° (WNW) 20:02:34
DANDE 02 Jul 19:46:23 19:50:45 55° 266° (W) 19:54:03 436.750
AO-85 02 Jul 19:50:54 19:53:30 14° 107° (ESE) 19:56:06 145.980
AAUSAT CUBESAT 2 02 Jul 19:57:51 19:59:48 13° 63° (ENE) 20:01:48 437.432
LilacSat-2 02 Jul 19:58:40 20:01:02 16° 268° (W) 20:03:25 437.200
BRITE-PL 02 Jul 20:10:20 20:12:17 12° 270° (W) 20:14:10 437.365/2234.400
NOAA 18 02 Jul 20:12:14 20:15:55 18° 269° (W) 20:19:37 137.9125
CUTE-I 02 Jul 20:13:08 20:16:52 19° 269° (W) 20:20:37 437.470
GOMX 1 02 Jul 20:18:47 20:21:56 19° 266° (W) 20:25:01 467.674
Cosmos 2499 02 Jul 20:22:24 20:30:32 49° 286° (WNW) 20:39:05 435.465 / 435.565
RS-15 02 Jul 20:31:49 20:44:13 75° 53° (NE) 20:56:30 29.354- 29.394
HO-68 02 Jul 20:34:12 20:41:23 89° 69° (ENE) 20:48:37 435.675
COMPASS 1 02 Jul 20:34:18 20:38:13 38° 71° (ENE) 20:42:10 437.405
AUBIESAT-1 02 Jul 20:40:32 20:42:53 18° 61° (ENE) 20:45:17 437.475
CUBEBUG 2 02 Jul 20:41:45 20:45:29 31° 69° (ENE) 20:49:19 437.445
ZACube-1 02 Jul 20:48:33 20:51:28 18° 64° (ENE) 20:54:26 437.345
Oscar 11 02 Jul 20:49:04 20:52:14 20° 65° (ENE) 20:55:24 145.826/435.025
CANX-2 02 Jul 20:50:27 20:54:41 61° 259° (W) 20:58:58 2200.000
DOVE 4 02 Jul 20:56:10 20:58:46 16° 268° (W) 21:01:21 437.250
FUNcube-1 02 Jul 21:02:54 21:06:18 24° 67° (ENE) 21:09:47 145.935
SEEDS 02 Jul 21:04:53 21:09:07 68° 259° (W) 21:13:24 437.485
DELFI C3 02 Jul 21:05:54 21:07:41 13° 63° (ENE) 21:09:28 145.870
CUTE 1.7 + AOD 2 02 Jul 21:09:44 21:13:49 43° 262° (W) 21:17:56 437.475
STRAND 1 02 Jul 21:10:31 21:15:38 66° 287° (WNW) 21:20:43 437.568
CINEMA 3 02 Jul 21:16:14 21:19:56 31° 264° (W) 21:23:42 145.822/145.860
UWE-3 02 Jul 21:18:45 21:22:52 54° 73° (ENE) 21:27:08 435.000/436.395/437.385
M-CUBED/EXP-1 PRIME 02 Jul 21:22:58 21:26:13 81° 71° (ENE) 21:29:33 437.505
AO-85 02 Jul 21:27:55 21:33:21 90° 290° (WNW) 21:38:36 145.980
AAUSAT CUBESAT 2 02 Jul 21:30:38 21:34:47 62° 259° (W) 21:38:58 437.432
GONETS M04 02 Jul 21:50:48 21:53:10 11° 308° (NW) 21:55:33
YUBILEINY 02 Jul 22:01:45 22:05:22 13° 54° (NE) 22:08:58 435.215
PRISM 02 Jul 22:09:45 22:13:51 89° 287° (WNW) 22:17:54 437.425
COMPASS 1 02 Jul 22:10:56 22:13:56 19° 268° (W) 22:16:56 437.405
AUBIESAT-1 02 Jul 22:14:28 22:17:15 25° 259° (WSW) 22:20:07 437.475
CUBEBUG 2 02 Jul 22:18:48 22:22:09 23° 267° (W) 22:25:36 437.445
ZACube-1 02 Jul 22:23:21 22:27:24 44° 262° (W) 22:31:35 437.345
Oscar 11 02 Jul 22:24:00 22:28:05 40° 262° (W) 22:32:13 145.826/435.025
HO-68 02 Jul 22:25:43 22:30:00 17° 271° (W) 22:34:19 435.675
ESTCUBE 1 02 Jul 22:29:20 22:30:26 11° 59° (ENE) 22:31:32 437.505/2401.250
DELFI C3 02 Jul 22:38:04 22:42:03 59° 259° (W) 22:46:03 145.870
FUNcube-1 02 Jul 22:38:35 22:42:24 32° 264° (W) 22:46:18 145.935
TIGRISAT 02 Jul 22:42:35 22:45:25 16° 91° (E) 22:48:14 435.000
RS-15 02 Jul 22:45:14 22:55:45 35° 256° (WSW) 23:06:11 29.354- 29.394
CUBEBUG 1 02 Jul 22:48:10 22:49:08 11° 60° (ENE) 22:50:05 437.445
SO-50 02 Jul 22:48:10 22:51:32 19° 38° (NE) 22:54:50 436.795
UNISAT 6 02 Jul 22:48:55 22:52:18 19° 92° (E) 22:55:40 437.425
HUMSAT D 02 Jul 22:54:41 22:58:53 86° 257° (WSW) 23:03:10 437.325/437.525
UWE-3 02 Jul 22:57:36 22:59:43 13° 270° (W) 23:01:53 435.000/436.395/437.385
VELOX 1 02 Jul 23:06:58 23:09:40 16° 63° (ENE) 23:12:22 145.980
AO-85 02 Jul 23:10:44 23:14:31 19° 322° (NW) 23:18:10 145.980
Cosmos 2491 02 Jul 23:16:27 23:21:09 16° 75° (ENE) 23:25:51 435.465 / 435.565
UKube-1 02 Jul 23:22:38 23:25:02 15° 62° (ENE) 23:27:25 .
ANTELSAT 02 Jul 23:27:41 23:32:13 47° 99° (E) 23:36:46 437.575/2403.000
50 SAT 02 Jul 23:37:34 23:40:50 30° 70° (ENE) 23:44:08 437.505
QB50P1 02 Jul 23:43:50 23:44:49 11° 89° (E) 23:45:48 145.935-145.965
AISAT 02 Jul 23:46:42 23:50:50 41° 70° (ENE) 23:54:58 437.250
POPSAT HIP 1 02 Jul 23:47:02 23:48:32 12° 90° (E) 23:50:03 437.405
DX 1 02 Jul 23:49:52 23:53:45 33° 69° (ENE) 23:57:40 434.975-435.025
DUCHIFAT 1 02 Jul 23:55:16 23:57:17 13° 90° (E) 23:59:18 145.980
YUBILEINY 02 Jul 23:55:34 00:04:20 61° 77° (ENE) 00:13:03 435.215
Cosmos 2504 02 Jul 23:58:50 00:05:33 23° 62° (ENE) 00:12:01 435.465 / 435.565
QB50P2 02 Jul 23:59:26 00:02:20 18° 92° (E) 00:05:13 145.880/145.840
ESTCUBE 1 03 Jul 00:01:59 00:06:32 89° 262° (W) 00:11:06 437.505/2401.250
POLYITAN 1 03 Jul 00:02:01 00:04:58 18° 93° (E) 00:07:56 437.675
TIGRISAT 03 Jul 00:17:50 00:22:26 57° 287° (WNW) 00:27:02 435.000
TISAT 1 03 Jul 00:19:49 00:19:56 10° 60° (ENE) 00:20:03 437.305
CUBEBUG 1 03 Jul 00:20:24 00:24:45 83° 259° (WSW) 00:29:07 437.445
UNISAT 6 03 Jul 00:24:44 00:29:13 46° 288° (WNW) 00:33:42 437.425
SO-50 03 Jul 00:27:53 00:32:33 72° 239° (WSW) 00:37:03 436.795
BUGSAT 1 03 Jul 00:30:49 00:33:04 14° 92° (E) 00:35:20 437.445
VELOX 1 03 Jul 00:41:25 00:45:43 53° 260° (W) 00:50:03 145.980
SPROUT 03 Jul 00:48:24 00:52:38 79° 76° (ENE) 00:56:55 437.525
UKube-1 03 Jul 00:56:22 01:00:36 57° 259° (WSW) 01:04:52 .
ANTELSAT 03 Jul 01:05:11 01:08:35 20° 295° (WNW) 01:12:00 437.575/2403.000
Cosmos 2491 03 Jul 01:07:45 01:16:31 81° 95° (E) 01:25:15 435.465 / 435.565
PCSat 03 Jul 01:09:27 01:14:00 28° 109° (ESE) 01:18:34 145.827
NANOSAT C BR1 03 Jul 01:10:53 01:15:10 85° 284° (WNW) 01:19:26 145.865
50 SAT 03 Jul 01:11:54 01:14:34 19° 266° (W) 01:17:15 437.505
BEESAT 3 03 Jul 01:13:08 01:15:34 16° 111° (ESE) 01:18:02 437.485
QB50P1 03 Jul 01:16:47 01:21:02 70° 286° (WNW) 01:25:17 145.935-145.965
POPSAT HIP 1 03 Jul 01:20:30 01:24:44 64° 286° (WNW) 01:28:58 437.405
AISAT 03 Jul 01:24:22 01:27:29 19° 267° (W) 01:30:36 437.250
DX 1 03 Jul 01:26:34 01:30:00 23° 265° (W) 01:33:28 434.975-435.025
SWISSCUBE 03 Jul 01:26:39 01:29:11 14° 60° (ENE) 01:31:43 437.505
DUCHIFAT 1 03 Jul 01:29:09 01:33:19 57° 287° (WNW) 01:37:29 145.980
QB50P2 03 Jul 01:34:16 01:38:19 42° 289° (WNW) 01:42:21 145.880/145.840
POLYITAN 1 03 Jul 01:36:55 01:40:58 41° 289° (WNW) 01:45:00 437.675
JAS-2 03 Jul 01:48:10 01:53:29 49° 99° (E) 01:58:29 435.910
BEESAT 03 Jul 01:50:06 01:53:41 21° 64° (ENE) 01:57:17 436.000
TISAT 1 03 Jul 01:50:46 01:54:56 82° 258° (WSW) 01:59:08 437.305
Cosmos 2504 03 Jul 01:51:11 02:00:06 84° 265° (W) 02:08:31 435.465 / 435.565
YUBILEINY 03 Jul 01:53:12 02:00:32 31° 278° (W) 02:07:52 435.215
ITUPSAT 1 03 Jul 01:54:16 01:58:00 23° 64° (ENE) 02:01:45 437.325
BEESAT 2 03 Jul 01:59:40 02:03:04 28° 115° (ESE) 02:06:29 435.950
BUGSAT 1 03 Jul 02:04:44 02:08:43 49° 287° (WNW) 02:12:44 437.445
O/OREOS (USA 219) 03 Jul 02:15:39 02:19:53 43° 107° (ESE) 02:24:08 437.305
Gurwin Techsat 1B 03 Jul 02:15:43 02:18:30 14° 89° (E) 02:21:17 435.225
